This demonstration page uses our WeatherBlox Daily Observations layout. Learn more.

Left ArrowRight Arrow

39.29038, -76.61219

Hourly Observations for October 18, 2016

Temp ( °F °C ) Dew Point ( °F °C ) Humidity (%) Winds ( mph kmh ) Pressure ( in mb ) Visibility ( mi km ) Precip ( " mm )
12:54 am 00:54 undefined 68 20 60 15.6 76 76 undefined N/A 29.93 1013 N/A 0.00 0.00
1:54 am 01:54 undefined 67 19.4 59 15 76 76 undefined N/A 29.92 1013 N/A 0.00 0.00
2:54 am 02:54 undefined 66 18.9 60 15.6 81 81 undefined N/A 29.92 1013 N/A 0.00 0.00
3:54 am 03:54 undefined 65 18.3 60 15.6 84 84 undefined N/A 29.92 1013 N/A 0.00 0.00
4:54 am 04:54 undefined 64 17.8 60 15.6 87 87 undefined N/A 29.92 1013 N/A 0.00 0.00
5:54 am 05:54 undefined 64 17.8 59 15 84 84 undefined N/A 29.93 1013 N/A 0.00 0.00
6:54 am 06:54 undefined 63 17.2 59 15 87 87 undefined N/A 29.94 1014 N/A 0.00 0.00
7:54 am 07:54 undefined 64 17.8 60 15.6 87 87 undefined N/A 29.96 1014 N/A 0.00 0.00
8:54 am 08:54 undefined 67 19.4 60 15.6 79 79 undefined N/A 29.96 1015 N/A 0.00 0.00
9:54 am 09:54 undefined 70 21.1 61 16.1 73 73 undefined N/A 29.96 1015 N/A 0.00 0.00
10:54 am 10:54 undefined 74 23.3 63 17.2 69 69 undefined N/A 29.95 1014 N/A 0.00 0.00
11:54 am 11:54 undefined 76 24.4 63 17.2 64 64 undefined N/A 29.94 1014 N/A 0.00 0.00
12:54 pm 12:54 undefined 79 26.1 64 17.8 60 60 undefined N/A 29.92 1013 N/A 0.00 0.00
1:54 pm 13:54 undefined 81 27.2 65 18.3 58 58 undefined N/A 29.88 1012 N/A 0.00 0.00
2:54 pm 14:54 undefined 81 27.2 65 18.3 58 58 undefined N/A 29.87 1012 N/A 0.00 0.00
3:54 pm 15:54 undefined 84 28.9 61 16.1 46 46 undefined N/A 29.86 1011 N/A 0.00 0.00
4:54 pm 16:54 undefined 83 28.3 59 15 44 44 undefined N/A 29.85 1011 N/A 0.00 0.00
5:54 pm 17:54 undefined 82 27.8 59 15 46 46 undefined N/A 29.87 1011 N/A 0.00 0.00
6:54 pm 18:54 undefined 78 25.6 63 17.2 60 60 undefined N/A 29.86 1011 N/A 0.00 0.00
7:54 pm 19:54 undefined 76 24.4 62 16.7 62 62 undefined N/A 29.89 1012 N/A 0.00 0.00
8:54 pm 20:54 undefined 74 23.3 62 16.7 67 67 undefined N/A 29.91 1013 N/A 0.00 0.00
9:54 pm 21:54 undefined 73 22.8 63 17.2 71 71 undefined N/A 29.92 1013 N/A 0.00 0.00
10:54 pm 22:54 undefined 72 22.2 63 17.2 73 73 undefined N/A 29.93 1014 N/A 0.00 0.00
11:54 pm 23:54 undefined 72 22.2 62 16.7 71 71 undefined N/A 29.91 1013 N/A 0.00 0.00

Powered by AerisWeather